This demonstration page uses our WeatherBlox Daily Observations layout. Learn more.

Left ArrowRight Arrow

40.92945, -100.16068

Hourly Observations for July 10, 2020

Temp ( °F °C ) Dew Point ( °F °C ) Humidity (%) Winds ( mph kmh ) Pressure ( in mb ) Visibility ( mi km ) Precip ( " mm )
12:15 am 00:15 Clear 72 22.1 68 19.8 87 87 S 7 11 29.95 1014 10 16.0934 0 0
12:35 am 00:35 Clear 72 22.2 67 19.6 85 85 SE 5 7 29.97 1015 10 16.0934 0 0
12:55 am 00:55 Clear with Nearby Thunderstorms 73 22.6 67 19.6 83 83 E 6 9 29.99 1016 10 16.0934 0 0
1:15 am 01:15 Clear 71 21.7 67 19.6 88 88 ENE 5 7 29.99 1015 10 16.0934 0 0
1:35 am 01:35 Mostly Cloudy with Thunderstorms 69 20.6 58 14.6 69 69 NW 46 74 30.1 1019 10 16.0934 0 0
1:55 am 01:55 Cloudy with Heavy Thunderstorms 62 16.8 59 15.1 90 90 NNE 32 52 30.13 1020 1.25 2.011675 0 0
2:15 am 02:15 Partly Cloudy 63 17.1 57 13.8 81 81 E 12 19 29.98 1015 10 16.0934 0 0
2:35 am 02:35 Clear with Nearby Thunderstorms 65 18.6 58 14.3 76 76 SE 10 17 29.98 1015 10 16.0934 0 0
2:55 am 02:55 Partly Cloudy with Nearby Thunderstorms 66 18.7 59 14.9 79 79 S 17 28 29.99 1016 10 16.0934 0 0
3:15 am 03:15 Mostly Cloudy with Light Rain 66 18.8 60 15.5 81 81 SSE 8 13 30.02 1017 10 16.0934 0 0
3:35 am 03:35 Partly Cloudy 65 18.3 59 15.2 82 82 S 15 24 29.98 1015 10 16.0934 0 0
3:55 am 03:55 Clear 65 18.5 59 14.8 79 79 S 8 13 29.96 1015 10 16.0934 0 0
4:15 am 04:15 Clear 65 18.4 59 14.8 80 80 SSE 6 9 29.94 1014 10 16.0934 0 0
4:35 am 04:35 Clear 64 18 59 15.2 84 84 E 5 7 29.94 1014 10 16.0934 0 0
4:55 am 04:55 Clear 63 17.1 60 15.4 90 90 SSE 5 7 29.95 1014 10 16.0934 0 0
5:15 am 05:15 Clear 62 16.8 60 15.5 92 92 E 3 6 29.95 1014 10 16.0934 0 0
5:35 am 05:35 Clear 62 16.7 60 15.4 92 92 NE 6 9 29.96 1015 10 16.0934 0 0
5:55 am 05:55 Clear 61 16.3 59 15.2 93 93 Calm 29.96 1015 10 16.0934 0 0
6:15 am 06:15 Clear 62 16.5 59 15.2 92 92 NNE 9 15 29.97 1015 10 16.0934 0 0
6:35 am 06:35 Sunny 62 16.5 60 15.3 93 93 NNE 7 11 29.98 1015 10 16.0934 0 0
6:55 am 06:55 Sunny 62 16.7 60 15.7 94 94 Calm 29.99 1016 10 16.0934 0 0
7:15 am 07:15 Sunny 64 17.8 62 16.5 92 92 Calm 29.98 1015 10 16.0934 0 0
7:35 am 07:35 Sunny 66 18.8 63 17.1 90 90 Calm 29.98 1015 10 16.0934 0 0
7:55 am 07:55 Sunny 67 19.4 64 17.6 89 89 Calm 29.99 1015 10 16.0934 0 0
8:15 am 08:15 Sunny 70 21.2 65 18.3 84 84 Calm 29.97 1015 10 16.0934 0 0
8:35 am 08:35 Sunny 72 22.2 66 18.8 81 81 E 7 11 29.97 1015 10 16.0934 0 0
8:55 am 08:55 Sunny 72 22.3 67 19.4 84 84 E 9 15 29.98 1015 10 16.0934 0 0
9:15 am 09:15 Sunny 73 22.9 67 19.5 81 81 ENE 8 13 29.99 1015 10 16.0934 0 0
9:35 am 09:35 Sunny 74 23.6 67 19.2 76 76 E 5 7 29.98 1015 10 16.0934 0.06 1.524
9:55 am 09:55 Sunny 74 23.6 66 19.1 76 76 E 3 6 29.98 1015 10 16.0934 0.06 1.524
10:15 am 10:15 Sunny 76 24.4 67 19.4 74 74 SE 3 6 29.97 1015 10 16.0934 0 0
10:35 am 10:35 Sunny 76 24.6 67 19.4 73 73 ESE 3 6 29.97 1015 10 16.0934 0 0
10:55 am 10:55 Sunny 77 25.2 67 19.6 71 71 SSE 8 13 29.96 1014 10 16.0934 0 0
11:15 am 11:15 Sunny 79 25.9 68 20 70 70 SSE 7 11 29.94 1014 10 16.0934 0 0
11:35 am 11:35 Sunny 80 26.7 69 20.4 68 68 SE 8 13 29.95 1014 10 16.0934 0 0
11:55 am 11:55 Sunny 81 27 69 20.3 67 67 SSE 9 15 29.94 1014 10 16.0934 0 0
12:15 pm 12:15 Sunny 82 27.8 69 20.8 66 66 SSE 12 19 29.93 1013 10 16.0934 0 0
12:35 pm 12:35 Partly Cloudy 83 28.4 69 20.7 63 63 S 8 13 29.92 1013 10 16.0934 0 0
12:55 pm 12:55 Partly Cloudy 84 29 70 21 62 62 S 8 13 29.92 1013 10 16.0934 0 0
1:15 pm 13:15 Sunny 84 28.7 70 20.9 63 63 S 8 13 29.91 1013 10 16.0934 0 0
1:35 pm 13:35 Sunny 86 29.9 69 20.8 58 58 SSW 10 17 29.9 1013 10 16.0934 0 0
1:55 pm 13:55 Partly Cloudy 86 29.9 70 21.1 59 59 S 9 15 29.89 1012 10 16.0934 0 0
2:15 pm 14:15 Partly Cloudy 87 30.5 71 21.5 59 59 S 12 19 29.88 1012 10 16.0934 0 0
2:35 pm 14:35 Mostly Cloudy 87 30.5 71 21.5 59 59 S 15 24 29.86 1011 10 16.0934 0 0
2:55 pm 14:55 Mostly Cloudy 88 30.9 71 21.4 57 57 S 14 22 29.85 1011 10 16.0934 0 0
3:15 pm 15:15 Mostly Cloudy 88 31.3 71 21.5 56 56 S 17 28 29.85 1011 10 16.0934 0 0
3:35 pm 15:35 Partly Cloudy 88 31 71 21.4 57 57 S 15 24 29.86 1011 10 16.0934 0 0
3:55 pm 15:55 Mostly Cloudy 87 30.7 71 21.6 58 58 S 13 20 29.85 1011 10 16.0934 0 0
4:15 pm 16:15 Mostly Cloudy 89 31.5 71 21.8 56 56 SSE 15 24 29.85 1011 10 16.0934 0 0
4:35 pm 16:35 Mostly Cloudy 89 31.6 71 21.5 55 55 S 14 22 29.85 1011 10 16.0934 0 0
4:55 pm 16:55 Mostly Cloudy 89 31.4 71 21.6 56 56 SSW 10 17 29.85 1011 10 16.0934 0 0
5:15 pm 17:15 Mostly Cloudy with Nearby Thunderstorms 89 31.7 70 21.2 54 54 SSE 13 20 29.84 1010 10 16.0934 0 0
5:35 pm 17:35 Mostly Cloudy with Nearby Thunderstorms 90 32 70 21.3 53 53 SSE 8 13 29.85 1011 10 16.0934 0 0
5:55 pm 17:55 Cloudy with Nearby Thunderstorms 87 30.5 69 20.7 56 56 NE 30 48 29.88 1012 10 16.0934 0 0
6:15 pm 18:15 Cloudy with Nearby Thunderstorms 71 21.8 64 17.5 77 77 ENE 20 31 29.95 1014 10 16.0934 0 0
6:35 pm 18:35 Cloudy with Heavy Rain 71 21.9 65 18.5 81 81 NE 12 19 29.97 1015 5 8.0467 0.02 0.508
6:55 pm 18:55 Partly Cloudy 73 22.6 68 19.8 84 84 SSE 9 15 29.92 1013 10 16.0934 0.04 1.016
7:15 pm 19:15 Sunny 74 23.3 69 20.4 84 84 S 12 19 29.88 1012 10 16.0934 0 0
7:35 pm 19:35 Sunny 74 23.3 67 19.6 80 80 ESE 10 17 29.88 1012 10 16.0934 0 0
7:55 pm 19:55 Sunny 74 23.3 66 18.9 76 76 SE 15 24 29.89 1012 10 16.0934 0 0
8:15 pm 20:15 Sunny 73 22.8 65 18.1 75 75 SE 13 20 29.9 1012 10 16.0934 0 0
8:35 pm 20:35 Sunny 72 22.3 64 17.9 76 76 SE 10 17 29.9 1013 10 16.0934 0 0
8:55 pm 20:55 Sunny 72 22 64 18 78 78 SSE 13 20 29.88 1012 10 16.0934 0 0
9:15 pm 21:15 Clear 71 21.7 66 19.1 85 85 SSE 9 15 29.86 1011 10 16.0934 0 0
9:35 pm 21:35 Clear 71 21.5 67 19.6 89 89 SSE 9 15 29.85 1011 10 16.0934 0 0
9:55 pm 21:55 Clear 71 21.6 67 19.5 88 88 SSE 8 13 29.86 1011 10 16.0934 0 0
10:15 pm 22:15 Clear 71 21.7 66 18.7 83 83 SSE 6 9 29.85 1011 10 16.0934 0 0
10:35 pm 22:35 Clear 71 21.6 65 18.6 83 83 SSE 7 11 29.85 1011 10 16.0934 0 0
10:55 pm 22:55 Clear 71 21.6 66 18.8 84 84 SSE 7 11 29.85 1011 10 16.0934 0 0
11:15 pm 23:15 Clear 72 22.3 66 19.1 82 82 S 10 17 29.84 1011 10 16.0934 0 0
11:35 pm 23:35 Clear 73 22.8 66 19.1 80 80 S 9 15 29.85 1011 10 16.0934 0 0
11:55 pm 23:55 Clear 73 23 66 19 78 78 S 8 13 29.85 1011 10 16.0934 0 0

Powered by AerisWeather